| time (UTC) | temp F | wind direction | speed MPH | gust MPH | rain 1hr in | rain 24hr in | rain mn in | humidity % | barometer mb |
| 20260506231029 | 57 | 231 | 2.0 | 8.0 | 0.02 | 0.30 | 0.30 | 94 | 1003.3 |
| 20260506230533 | 57 | 187 | 3.0 | 8.0 | 0.02 | 0.30 | 0.30 | 94 | 1003.3 |
| 20260506230038 | 57 | 279 | 3.0 | 8.0 | 0.02 | 0.30 | 0.30 | 94 | 1003.4 |
| 20260506225530 | 57 | 205 | 3.0 | 10.0 | 0.02 | 0.30 | 0.30 | 93 | 1003.5 |
| 20260506225032 | 58 | 247 | 4.0 | 10.0 | 0.01 | 0.29 | 0.29 | 93 | 1003.4 |
| 20260506224541 | 58 | 223 | 1.0 | 2.0 | 0.01 | 0.29 | 0.29 | 94 | 1003.3 |
| 20260506224031 | 58 | 223 | 0.0 | 2.0 | 0.01 | 0.29 | 0.29 | 94 | 1003.3 |
| 20260506223532 | 58 | 0 | 0.0 | 3.0 | 0.01 | 0.29 | 0.29 | 93 | 1003.3 |
| 20260506223042 | 58 | 223 | 0.0 | 4.0 | 0.01 | 0.29 | 0.29 | 93 | 1003.4 |
| 20260506222530 | 58 | 217 | 1.0 | 5.0 | 0.01 | 0.29 | 0.29 | 93 | 1003.3 |
| 20260506222030 | 58 | 188 | 1.0 | 6.0 | 0.01 | 0.29 | 0.29 | 92 | 1003.3 |
| 20260506221539 | 58 | 178 | 1.0 | 8.0 | 0.00 | 0.28 | 0.28 | 92 | 1003.3 |
| 20260506221030 | 58 | 222 | 3.0 | 8.0 | 0.00 | 0.28 | 0.28 | 92 | 1003.3 |
| 20260506220530 | 58 | 178 | 3.0 | 8.0 | 0.00 | 0.28 | 0.28 | 92 | 1003.2 |
| 20260506220039 | 58 | 190 | 3.0 | 8.0 | 0.00 | 0.28 | 0.28 | 92 | 1003.2 |
| 20260506215530 | 59 | 177 | 3.0 | 9.0 | 0.00 | 0.29 | 0.28 | 92 | 1003.2 |
| 20260506215030 | 59 | 189 | 4.0 | 10.0 | 0.00 | 0.29 | 0.28 | 92 | 1003.1 |
| 20260506214545 | 59 | 201 | 4.0 | 10.0 | 0.00 | 0.29 | 0.28 | 92 | 1003.1 |
| 20260506214034 | 59 | 167 | 4.0 | 9.0 | 0.00 | 0.29 | 0.28 | 91 | 1003.2 |
| 20260506213533 | 59 | 143 | 4.0 | 8.0 | 0.00 | 0.29 | 0.28 | 91 | 1003.2 |
| 20260506213043 | 59 | 178 | 4.0 | 13.0 | 0.00 | 0.29 | 0.28 | 91 | 1003.3 |
| 20260506212530 | 59 | 239 | 4.0 | 13.0 | 0.00 | 0.29 | 0.28 | 90 | 1003.2 |
| 20260506212031 | 59 | 194 | 6.0 | 13.0 | 0.00 | 0.29 | 0.28 | 90 | 1003.4 |
| 20260506211541 | 59 | 200 | 5.0 | 12.0 | 0.00 | 0.29 | 0.28 | 91 | 1003.4 |
| 20260506211030 | 59 | 175 | 5.0 | 13.0 | 0.00 | 0.29 | 0.28 | 91 | 1003.4 |
| 20260506210531 | 59 | 218 | 4.0 | 14.0 | 0.00 | 0.29 | 0.28 | 91 | 1003.4 |
| 20260506210040 | 59 | 207 | 5.0 | 14.0 | 0.00 | 0.29 | 0.28 | 91 | 1003.4 |
| 20260506205533 | 59 | 165 | 7.0 | 14.0 | 0.00 | 0.29 | 0.28 | 91 | 1003.4 |
| 20260506205030 | 58 | 215 | 7.0 | 14.0 | 0.00 | 0.29 | 0.28 | 92 | 1003.3 |
| 20260506204539 | 59 | 175 | 5.0 | 14.0 | 0.00 | 0.29 | 0.28 | 92 | 1003.4 |
| 20260506204031 | 58 | 181 | 8.0 | 13.0 | 0.00 | 0.29 | 0.28 | 92 | 1003.5 |
| 20260506203532 | 59 | 190 | 4.0 | 18.0 | 0.00 | 0.29 | 0.28 | 93 | 1003.6 |
| 20260506203039 | 58 | 183 | 7.0 | 18.0 | 0.00 | 0.29 | 0.28 | 92 | 1003.5 |
| 20260506202530 | 58 | 205 | 4.0 | 8.0 | 0.00 | 0.29 | 0.28 | 93 | 1003.5 |
| 20260506202030 | 58 | 142 | 3.0 | 10.0 | 0.00 | 0.29 | 0.28 | 94 | 1003.5 |
| 20260506201541 | 58 | 177 | 6.0 | 10.0 | 0.01 | 0.29 | 0.28 | 94 | 1003.6 |
| 20260506201029 | 58 | 170 | 3.0 | 12.0 | 0.03 | 0.29 | 0.28 | 94 | 1003.7 |
| 20260506200530 | 58 | 180 | 5.0 | 12.0 | 0.05 | 0.29 | 0.28 | 94 | 1003.7 |
| 20260506200040 | 58 | 148 | 5.0 | 10.0 | 0.06 | 0.29 | 0.28 | 94 | 1003.7 |
| 20260506195533 | 58 | 119 | 3.0 | 9.0 | 0.07 | 0.29 | 0.28 | 94 | 1003.7 |
| 20260506195032 | 58 | 171 | 3.0 | 9.0 | 0.07 | 0.29 | 0.28 | 94 | 1003.9 |
| 20260506194539 | 58 | 159 | 3.0 | 7.0 | 0.08 | 0.29 | 0.28 | 94 | 1004.0 |
| 20260506194030 | 58 | 138 | 3.0 | 7.0 | 0.09 | 0.29 | 0.28 | 94 | 1004.0 |
| 20260506193529 | 58 | 147 | 2.0 | 7.0 | 0.10 | 0.29 | 0.28 | 94 | 1004.2 |
| 20260506193037 | 58 | 204 | 2.0 | 5.0 | 0.10 | 0.29 | 0.28 | 94 | 1004.3 |
| 20260506192529 | 58 | 160 | 2.0 | 6.0 | 0.10 | 0.29 | 0.28 | 94 | 1004.2 |
| 20260506192034 | 58 | 154 | 1.0 | 6.0 | 0.10 | 0.28 | 0.27 | 94 | 1004.3 |
| 20260506191535 | 58 | 248 | 2.0 | 5.0 | 0.10 | 0.28 | 0.27 | 94 | 1004.5 |
| 20260506191030 | 58 | 206 | 0.0 | 5.0 | 0.09 | 0.26 | 0.25 | 94 | 1004.5 |
| 20260506190530 | 58 | 0 | 1.0 | 5.0 | 0.08 | 0.24 | 0.23 | 94 | 1004.4 |
| 20260506190043 | 58 | 148 | 2.0 | 7.0 | 0.07 | 0.23 | 0.22 | 94 | 1004.5 |
| 20260506185530 | 58 | 195 | 3.0 | 7.0 | 0.07 | 0.22 | 0.21 | 94 | 1004.6 |
| 20260506185029 | 58 | 178 | 3.0 | 8.0 | 0.08 | 0.22 | 0.21 | 93 | 1004.7 |
| 20260506184546 | 58 | 174 | 3.0 | 8.0 | 0.08 | 0.21 | 0.20 | 93 | 1004.8 |
| 20260506184030 | 58 | 219 | 3.0 | 8.0 | 0.09 | 0.20 | 0.19 | 93 | 1004.8 |
| 20260506183530 | 58 | 140 | 4.0 | 8.0 | 0.09 | 0.19 | 0.18 | 93 | 1004.8 |
| 20260506183039 | 59 | 173 | 3.0 | 9.0 | 0.10 | 0.19 | 0.18 | 93 | 1004.8 |
| 20260506182529 | 59 | 167 | 1.0 | 10.0 | 0.11 | 0.19 | 0.18 | 93 | 1004.6 |
| 20260506182029 | 59 | 165 | 4.0 | 10.0 | 0.11 | 0.18 | 0.17 | 93 | 1005.2 |
| 20260506181539 | 59 | 157 | 4.0 | 13.0 | 0.12 | 0.18 | 0.17 | 92 | 1005.2 |
| 20260506181029 | 59 | 177 | 6.0 | 13.0 | 0.12 | 0.17 | 0.16 | 92 | 1005.4 |
| 20260506180529 | 59 | 218 | 2.0 | 10.0 | 0.11 | 0.16 | 0.15 | 93 | 1005.4 |
| 20260506180037 | 58 | 188 | 5.0 | 10.0 | 0.12 | 0.16 | 0.15 | 92 | 1005.4 |
| 20260506175528 | 59 | 209 | 4.0 | 10.0 | 0.11 | 0.15 | 0.14 | 93 | 1005.7 |
| 20260506175028 | 59 | 201 | 2.0 | 10.0 | 0.11 | 0.14 | 0.13 | 92 | 1005.8 |
| 20260506174538 | 59 | 190 | 2.0 | 9.0 | 0.11 | 0.13 | 0.12 | 93 | 1005.7 |
| 20260506174034 | 59 | 182 | 4.0 | 9.0 | 0.09 | 0.11 | 0.10 | 92 | 1005.8 |
| 20260506173530 | 59 | 169 | 4.0 | 8.0 | 0.09 | 0.10 | 0.09 | 92 | 1005.8 |
| 20260506173117 | 59 | 164 | 3.0 | 8.0 | 0.08 | 0.09 | 0.08 | 92 | 1005.9 |
| 20260506172534 | 59 | 134 | 1.0 | 5.0 | 0.07 | 0.08 | 0.07 | 92 | 1005.9 |
| 20260506172030 | 59 | 194 | 2.0 | 5.0 | 0.06 | 0.07 | 0.06 | 91 | 1005.9 |
| 20260506171545 | 59 | 184 | 1.0 | 4.0 | 0.05 | 0.06 | 0.05 | 91 | 1005.8 |
| 20260506171033 | 59 | 162 | 1.0 | 4.0 | 0.04 | 0.05 | 0.04 | 90 | 1005.8 |
| 20260506170529 | 59 | 196 | 1.0 | 4.0 | 0.04 | 0.05 | 0.04 | 90 | 1005.9 |
| 20260506170050 | 60 | 158 | 1.0 | 7.0 | 0.03 | 0.04 | 0.03 | 89 | 1005.9 |
| 20260506165529 | 60 | 188 | 1.0 | 8.0 | 0.02 | 0.03 | 0.02 | 89 | 1005.8 |
| 20260506165030 | 60 | 165 | 1.0 | 8.0 | 0.02 | 0.03 | 0.02 | 87 | 1005.8 |
| 20260506164541 | 60 | 203 | 2.0 | 8.0 | 0.01 | 0.02 | 0.01 | 86 | 1005.9 |
| 20260506164030 | 60 | 186 | 2.0 | 9.0 | 0.01 | 0.02 | 0.01 | 85 | 1006.0 |
| 20260506163535 | 60 | 207 | 3.0 | 11.0 | 0.00 | 0.01 | 0.00 | 83 | 1006.1 |
| 20260506163042 | 61 | 211 | 5.0 | 11.0 | 0.00 | 0.01 | 0.00 | 82 | 1006.1 |
| 20260506162530 | 61 | 192 | 3.0 | 12.0 | 0.00 | 0.01 | 0.00 | 81 | 1006.0 |
| 20260506162033 | 61 | 231 | 4.0 | 12.0 | 0.00 | 0.01 | 0.00 | 80 | 1006.0 |
| 20260506161540 | 61 | 214 | 4.0 | 11.0 | 0.00 | 0.01 | 0.00 | 80 | 1006.2 |
| 20260506161030 | 61 | 189 | 4.0 | 19.0 | 0.00 | 0.01 | 0.00 | 79 | 1006.2 |
| 20260506160530 | 62 | 202 | 8.0 | 19.0 | 0.00 | 0.01 | 0.00 | 79 | 1006.4 |
| 20260506160040 | 62 | 182 | 5.0 | 11.0 | 0.00 | 0.01 | 0.00 | 79 | 1006.4 |
| 20260506155530 | 62 | 177 | 4.0 | 13.0 | 0.00 | 0.01 | 0.00 | 79 | 1006.3 |
| 20260506155032 | 62 | 201 | 6.0 | 13.0 | 0.00 | 0.01 | 0.00 | 78 | 1006.4 |
| 20260506154553 | 61 | 225 | 4.0 | 10.0 | 0.00 | 0.01 | 0.00 | 80 | 1006.7 |
| 20260506154031 | 61 | 232 | 4.0 | 14.0 | 0.00 | 0.01 | 0.00 | 80 | 1006.7 |
| 20260506153533 | 61 | 261 | 6.0 | 14.0 | 0.00 | 0.01 | 0.00 | 80 | 1006.8 |
| 20260506153047 | 61 | 216 | 3.0 | 13.0 | 0.00 | 0.01 | 0.00 | 80 | 1007.1 |
| 20260506152532 | 61 | 209 | 5.0 | 13.0 | 0.00 | 0.01 | 0.00 | 78 | 1007.2 |
| 20260506152032 | 61 | 258 | 7.0 | 13.0 | 0.00 | 0.01 | 0.00 | 78 | 1007.3 |
| 20260506151551 | 61 | 269 | 3.0 | 9.0 | 0.00 | 0.01 | 0.00 | 79 | 1007.2 |
| 20260506151030 | 61 | 271 | 4.0 | 9.0 | 0.00 | 0.01 | 0.00 | 77 | 1007.3 |
| 20260506150533 | 62 | 261 | 3.0 | 8.0 | 0.00 | 0.01 | 0.00 | 78 | 1007.3 |
| 20260506150041 | 62 | 223 | 2.0 | 6.0 | 0.00 | 0.01 | 0.00 | 77 | 1007.1 |
| 20260506145531 | 62 | 228 | 2.0 | 6.0 | 0.00 | 0.01 | 0.00 | 77 | 1007.0 |
| 20260506145032 | 62 | 231 | 2.0 | 9.0 | 0.00 | 0.01 | 0.00 | 79 | 1007.0 |
| 20260506144542 | 62 | 0 | 2.0 | 10.0 | 0.00 | 0.01 | 0.00 | 78 | 1007.0 |
| 20260506144030 | 61 | 179 | 4.0 | 10.0 | 0.00 | 0.01 | 0.00 | 77 | 1006.9 |
| 20260506143530 | 61 | 257 | 4.0 | 12.0 | 0.00 | 0.01 | 0.00 | 78 | 1006.8 |
| 20260506143040 | 61 | 207 | 3.0 | 12.0 | 0.00 | 0.01 | 0.00 | 77 | 1006.9 |
| 20260506142530 | 61 | 215 | 4.0 | 10.0 | 0.00 | 0.01 | 0.00 | 78 | 1007.0 |
| 20260506142029 | 61 | 261 | 4.0 | 11.0 | 0.00 | 0.01 | 0.00 | 77 | 1006.9 |
| 20260506141542 | 61 | 247 | 5.0 | 12.0 | 0.00 | 0.01 | 0.00 | 78 | 1006.9 |
| 20260506141030 | 61 | 237 | 4.0 | 12.0 | 0.00 | 0.01 | 0.00 | 77 | 1007.1 |
| 20260506140530 | 61 | 278 | 3.0 | 8.0 | 0.00 | 0.01 | 0.00 | 78 | 1007.1 |
| 20260506140042 | 61 | 245 | 2.0 | 8.0 | 0.00 | 0.01 | 0.00 | 81 | 1007.0 |
| 20260506135530 | 60 | 258 | 3.0 | 8.0 | 0.00 | 0.01 | 0.00 | 80 | 1007.1 |
| 20260506135029 | 60 | 299 | 2.0 | 8.0 | 0.00 | 0.01 | 0.00 | 81 | 1007.0 |
| 20260506134541 | 60 | 307 | 2.0 | 7.0 | 0.00 | 0.01 | 0.00 | 81 | 1007.0 |
| 20260506134029 | 60 | 265 | 3.0 | 7.0 | 0.00 | 0.01 | 0.00 | 81 | 1007.0 |
| 20260506133529 | 59 | 236 | 2.0 | 7.0 | 0.00 | 0.01 | 0.00 | 81 | 1007.0 |
| 20260506133039 | 59 | 288 | 1.0 | 6.0 | 0.00 | 0.01 | 0.00 | 82 | 1007.1 |
| 20260506132533 | 59 | 257 | 2.0 | 7.0 | 0.00 | 0.01 | 0.00 | 82 | 1007.2 |
| 20260506132032 | 59 | 232 | 3.0 | 7.0 | 0.00 | 0.01 | 0.00 | 82 | 1007.3 |
| 20260506131550 | 58 | 220 | 2.0 | 7.0 | 0.00 | 0.01 | 0.00 | 82 | 1007.4 |
| 20260506131030 | 58 | 278 | 2.0 | 7.0 | 0.00 | 0.01 | 0.00 | 82 | 1007.6 |
| 20260506130529 | 58 | 258 | 1.0 | 6.0 | 0.00 | 0.01 | 0.00 | 82 | 1007.8 |
| 20260506130051 | 58 | 258 | 2.0 | 5.0 | 0.00 | 0.01 | 0.00 | 82 | 1007.8 |
| 20260506125532 | 58 | 242 | 0.0 | 2.0 | 0.00 | 0.01 | 0.00 | 83 | 1007.8 |
| 20260506125033 | 58 | 309 | 0.0 | 2.0 | 0.00 | 0.01 | 0.00 | 83 | 1007.6 |
| 20260506124541 | 58 | 45 | 0.0 | 1.0 | 0.00 | 0.01 | 0.00 | 82 | 1007.4 |
| 20260506124029 | 58 | 0 | 0.0 | 1.0 | 0.00 | 0.01 | 0.00 | 83 | 1007.4 |
| 20260506123529 | 58 | 0 | 0.0 | 2.0 | 0.00 | 0.01 | 0.00 | 83 | 1007.4 |
| 20260506123042 | 58 | 0 | 0.0 | 3.0 | 0.00 | 0.01 | 0.00 | 83 | 1007.4 |
| 20260506122530 | 58 | 45 | 0.0 | 3.0 | 0.00 | 0.01 | 0.00 | 83 | 1007.1 |
| 20260506122030 | 57 | 0 | 0.0 | 1.0 | 0.00 | 0.01 | 0.00 | 84 | 1007.2 |
| 20260506121537 | 57 | 0 | 0.0 | 3.0 | 0.00 | 0.01 | 0.00 | 84 | 1007.2 |
| 20260506121029 | 57 | 0 | 0.0 | 3.0 | 0.00 | 0.01 | 0.00 | 84 | 1007.3 |
| 20260506120534 | 57 | 230 | 1.0 | 3.0 | 0.00 | 0.01 | 0.00 | 84 | 1007.5 |
| 20260506120050 | 56 | 194 | 1.0 | 5.0 | 0.00 | 0.01 | 0.00 | 84 | 1007.7 |
| 20260506115529 | 56 | 0 | 2.0 | 5.0 | 0.00 | 0.01 | 0.00 | 84 | 1007.6 |
| 20260506115028 | 56 | 0 | 2.0 | 4.0 | 0.00 | 0.01 | 0.00 | 84 | 1007.5 |
| 20260506114542 | 56 | 137 | 0.0 | 4.0 | 0.00 | 0.01 | 0.00 | 85 | 1007.5 |
| 20260506114029 | 56 | 0 | 1.0 | 4.0 | 0.00 | 0.01 | 0.00 | 85 | 1007.5 |
| 20260506113529 | 56 | 160 | 1.0 | 4.0 | 0.00 | 0.01 | 0.00 | 86 | 1007.5 |
| 20260506113055 | 55 | 0 | 0.0 | 3.0 | 0.00 | 0.01 | 0.00 | 86 | 1007.6 |
| 20260506112529 | 55 | 62 | 0.0 | 2.0 | 0.00 | 0.01 | 0.00 | 87 | 1007.7 |
| 20260506112032 | 54 | 0 | 0.0 | 2.0 | 0.00 | 0.01 | 0.00 | 87 | 1007.6 |
| 20260506111537 | 54 | 62 | 0.0 | 2.0 | 0.00 | 0.01 | 0.00 | 88 | 1007.8 |
| 20260506111029 | 54 | 0 | 0.0 | 2.0 | 0.00 | 0.01 | 0.00 | 89 | 1007.7 |
| 20260506110531 | 53 | 0 | 0.0 | 3.0 | 0.00 | 0.01 | 0.00 | 89 | 1007.5 |
| 20260506110043 | 53 | 62 | 0.0 | 3.0 | 0.00 | 0.01 | 0.00 | 89 | 1007.5 |
| 20260506105529 | 52 | 61 | 0.0 | 3.0 | 0.00 | 0.01 | 0.00 | 90 | 1007.6 |
| 20260506105031 | 52 | 51 | 1.0 | 3.0 | 0.00 | 0.01 | 0.00 | 90 | 1007.5 |
| 20260506104548 | 52 | 0 | 0.0 | 0.0 | 0.00 | 0.01 | 0.00 | 89 | 1007.6 |
| 20260506104027 | 52 | 0 | 0.0 | 0.0 | 0.00 | 0.01 | 0.00 | 89 | 1007.7 |
| 20260506103527 | 52 | 0 | 0.0 | 2.0 | 0.00 | 0.01 | 0.00 | 89 | 1007.7 |
| 20260506103049 | 52 | 0 | 0.0 | 2.0 | 0.00 | 0.01 | 0.00 | 88 | 1007.7 |
| 20260506102530 | 52 | 46 | 1.0 | 2.0 | 0.00 | 0.01 | 0.00 | 88 | 1007.7 |
| 20260506102030 | 52 | 0 | 0.0 | 2.0 | 0.00 | 0.01 | 0.00 | 87 | 1007.7 |
| 20260506101549 | 53 | 46 | 0.0 | 2.0 | 0.00 | 0.01 | 0.00 | 88 | 1007.5 |
| 20260506101029 | 52 | 0 | 0.0 | 2.0 | 0.00 | 0.01 | 0.00 | 89 | 1007.7 |
| 20260506100529 | 52 | 46 | 0.0 | 2.0 | 0.00 | 0.01 | 0.00 | 89 | 1008.0 |
| 20260506100059 | 52 | 46 | 0.0 | 2.0 | 0.00 | 0.01 | 0.00 | 89 | 1007.7 |
| 20260506095529 | 52 | 46 | 1.0 | 2.0 | 0.00 | 0.01 | 0.00 | 89 | 1007.5 |
| 20260506095028 | 52 | 0 | 0.0 | 2.0 | 0.00 | 0.01 | 0.00 | 88 | 1007.5 |
| 20260506094536 | 52 | 0 | 0.0 | 2.0 | 0.00 | 0.01 | 0.00 | 87 | 1007.6 |
| 20260506094027 | 52 | 46 | 0.0 | 1.0 | 0.00 | 0.01 | 0.00 | 88 | 1007.5 |
| 20260506093526 | 52 | 46 | 0.0 | 1.0 | 0.00 | 0.01 | 0.00 | 87 | 1007.5 |
| 20260506093042 | 52 | 0 | 0.0 | 2.0 | 0.00 | 0.01 | 0.00 | 87 | 1007.4 |
| 20260506092527 | 52 | 0 | 0.0 | 3.0 | 0.00 | 0.01 | 0.00 | 87 | 1007.3 |
| 20260506092030 | 53 | 46 | 1.0 | 3.0 | 0.00 | 0.01 | 0.00 | 86 | 1007.5 |
| 20260506091540 | 53 | 49 | 0.0 | 3.0 | 0.00 | 0.01 | 0.00 | 85 | 1007.4 |
| 20260506091032 | 53 | 0 | 0.0 | 0.0 | 0.00 | 0.01 | 0.00 | 85 | 1007.6 |
| 20260506090530 | 53 | 0 | 0.0 | 0.0 | 0.00 | 0.01 | 0.00 | 86 | 1007.4 |
| 20260506090038 | 53 | 0 | 0.0 | 0.0 | 0.00 | 0.01 | 0.00 | 87 | 1007.4 |
| 20260506085531 | 53 | 0 | 0.0 | 0.0 | 0.00 | 0.01 | 0.00 | 86 | 1007.6 |
| 20260506085029 | 53 | 0 | 0.0 | 2.0 | 0.00 | 0.01 | 0.00 | 85 | 1007.5 |
| 20260506084559 | 53 | 0 | 0.0 | 3.0 | 0.00 | 0.01 | 0.00 | 84 | 1007.7 |
| 20260506084027 | 54 | 169 | 0.0 | 4.0 | 0.00 | 0.01 | 0.00 | 83 | 1007.5 |
| 20260506083529 | 54 | 322 | 0.0 | 4.0 | 0.00 | 0.01 | 0.00 | 83 | 1007.7 |
| 20260506083035 | 54 | 254 | 1.0 | 4.0 | 0.00 | 0.01 | 0.00 | 83 | 1007.8 |
| 20260506082530 | 54 | 0 | 0.0 | 2.0 | 0.00 | 0.01 | 0.00 | 83 | 1007.8 |
| 20260506082033 | 55 | 296 | 0.0 | 2.0 | 0.00 | 0.01 | 0.00 | 82 | 1007.9 |
| 20260506081547 | 55 | 0 | 0.0 | 2.0 | 0.00 | 0.01 | 0.00 | 81 | 1008.0 |
| 20260506081030 | 55 | 276 | 0.0 | 3.0 | 0.00 | 0.01 | 0.00 | 81 | 1007.9 |
| 20260506080530 | 55 | 276 | 0.0 | 3.0 | 0.00 | 0.01 | 0.00 | 81 | 1007.9 |
| 20260506073045 | 57 | 330 | 0.0 | 3.0 | 0.00 | 0.01 | 0.00 | 78 | 1007.9 |
| 20260506072530 | 57 | 0 | 1.0 | 3.0 | 0.00 | 0.01 | 0.00 | 77 | 1007.8 |
| 20260506072029 | 57 | 308 | 0.0 | 6.0 | 0.00 | 0.01 | 0.00 | 77 | 1007.9 |
| 20260506071545 | 58 | 277 | 1.0 | 6.0 | 0.00 | 0.01 | 0.00 | 77 | 1007.9 |
| 20260506071031 | 57 | 292 | 1.0 | 4.0 | 0.00 | 0.01 | 0.00 | 77 | 1008.0 |
| 20260506070532 | 57 | 240 | 1.0 | 4.0 | 0.00 | 0.01 | 0.00 | 77 | 1007.9 |
| 20260506062029 | 59 | 266 | 1.0 | 4.0 | 0.00 | 0.01 | 0.00 | 75 | 1007.6 |
| 20260506061539 | 59 | 302 | 1.0 | 7.0 | 0.00 | 0.01 | 0.00 | 75 | 1007.6 |
| 20260506061029 | 59 | 269 | 3.0 | 7.0 | 0.00 | 0.01 | 0.00 | 74 | 1007.6 |
| 20260506060532 | 59 | 254 | 2.0 | 6.0 | 0.00 | 0.01 | 0.00 | 74 | 1007.7 |
| 20260506051029 | 60 | 284 | 0.0 | 3.0 | 0.00 | 0.01 | 0.00 | 75 | 1007.8 |
| 20260506050530 | 61 | 288 | 1.0 | 3.0 | 0.00 | 0.01 | 0.00 | 75 | 1007.9 |
| 20260506045030 | 61 | 219 | 1.0 | 5.0 | 0.00 | 0.01 | 0.00 | 74 | 1007.8 |
| 20260506044622 | 61 | 0 | 1.0 | 6.0 | 0.00 | 0.01 | 0.00 | 75 | 1007.9 |
| 20260506044031 | 60 | 193 | 2.0 | 6.0 | 0.00 | 0.01 | 0.00 | 74 | 1007.9 |
| 20260506043529 | 60 | 203 | 0.0 | 2.0 | 0.00 | 0.01 | 0.00 | 76 | 1007.9 |
| 20260506043040 | 61 | 0 | 0.0 | 2.0 | 0.00 | 0.01 | 0.00 | 76 | 1007.9 |
| 20260506042530 | 61 | 0 | 0.0 | 2.0 | 0.00 | 0.01 | 0.00 | 75 | 1007.8 |
| 20260506042030 | 61 | 0 | 0.0 | 4.0 | 0.00 | 0.01 | 0.00 | 75 | 1007.6 |
| 20260506041553 | 62 | 203 | 0.0 | 7.0 | 0.00 | 0.01 | 0.00 | 75 | 1007.7 |
| 20260506041030 | 62 | 0 | 1.0 | 7.0 | 0.00 | 0.01 | 0.00 | 73 | 1007.6 |
| 20260506040529 | 61 | 208 | 2.0 | 7.0 | 0.00 | 0.01 | 0.00 | 74 | 1007.6 |
| 20260506040040 | 61 | 194 | 1.0 | 3.0 | 0.00 | 0.01 | 0.00 | 75 | 1007.5 |
| 20260506035530 | 61 | 277 | 0.0 | 2.0 | 0.00 | 0.01 | 0.01 | 76 | 1007.6 |
| 20260506035029 | 61 | 0 | 0.0 | 2.0 | 0.00 | 0.01 | 0.01 | 77 | 1007.7 |
| 20260506034605 | 61 | 0 | 0.0 | 2.0 | 0.00 | 0.01 | 0.01 | 76 | 1007.6 |
| 20260506034029 | 61 | 52 | 0.0 | 3.0 | 0.00 | 0.01 | 0.01 | 76 | 1007.7 |
| 20260506033529 | 62 | 52 | 0.0 | 3.0 | 0.00 | 0.01 | 0.01 | 76 | 1007.7 |
| 20260506033037 | 62 | 0 | 1.0 | 3.0 | 0.00 | 0.01 | 0.01 | 74 | 1007.7 |
| 20260506032529 | 63 | 53 | 1.0 | 3.0 | 0.00 | 0.01 | 0.01 | 73 | 1007.7 |
| 20260506032029 | 63 | 0 | 0.0 | 4.0 | 0.00 | 0.01 | 0.01 | 73 | 1007.7 |
| 20260506031542 | 63 | 0 | 1.0 | 4.0 | 0.00 | 0.01 | 0.01 | 70 | 1007.5 |
| 20260506031032 | 63 | 200 | 2.0 | 4.0 | 0.00 | 0.01 | 0.01 | 70 | 1007.6 |
| 20260506030529 | 63 | 187 | 1.0 | 8.0 | 0.00 | 0.01 | 0.01 | 71 | 1007.7 |
| 20260506030039 | 63 | 169 | 2.0 | 8.0 | 0.00 | 0.01 | 0.01 | 71 | 1007.7 |
| 20260506025533 | 63 | 170 | 1.0 | 8.0 | 0.00 | 0.01 | 0.01 | 71 | 1007.5 |
| 20260506025029 | 63 | 204 | 1.0 | 5.0 | 0.00 | 0.01 | 0.01 | 70 | 1007.7 |
| 20260506024542 | 63 | 205 | 0.0 | 5.0 | 0.00 | 0.01 | 0.01 | 70 | 1007.8 |
| 20260506024030 | 63 | 216 | 1.0 | 6.0 | 0.00 | 0.01 | 0.01 | 70 | 1007.8 |
| 20260506023530 | 63 | 0 | 3.0 | 7.0 | 0.00 | 0.01 | 0.01 | 70 | 1007.7 |
| 20260506023059 | 63 | 217 | 3.0 | 9.0 | 0.00 | 0.01 | 0.01 | 71 | 1007.7 |
| 20260506022529 | 63 | 160 | 3.0 | 9.0 | 0.00 | 0.01 | 0.01 | 72 | 1007.8 |
| 20260506022029 | 62 | 197 | 1.0 | 5.0 | 0.00 | 0.01 | 0.01 | 72 | 1007.6 |
| 20260506021543 | 62 | 162 | 1.0 | 5.0 | 0.00 | 0.01 | 0.01 | 73 | 1007.5 |
| 20260506021029 | 62 | 182 | 2.0 | 6.0 | 0.00 | 0.01 | 0.01 | 73 | 1007.6 |
| 20260506020529 | 61 | 173 | 1.0 | 6.0 | 0.00 | 0.01 | 0.01 | 74 | 1007.7 |
| 20260506020046 | 61 | 175 | 1.0 | 6.0 | 0.00 | 0.01 | 0.01 | 75 | 1007.7 |
| 20260506015530 | 62 | 0 | 2.0 | 6.0 | 0.00 | 0.01 | 0.01 | 74 | 1007.7 |
| 20260506015034 | 62 | 155 | 0.0 | 4.0 | 0.00 | 0.01 | 0.01 | 73 | 1007.7 |
| 20260506014540 | 62 | 0 | 1.0 | 4.0 | 0.00 | 0.01 | 0.01 | 73 | 1007.5 |
| 20260506014029 | 62 | 153 | 0.0 | 4.0 | 0.00 | 0.01 | 0.01 | 72 | 1007.5 |
| 20260506013529 | 62 | 0 | 1.0 | 4.0 | 0.00 | 0.01 | 0.01 | 73 | 1007.3 |
| 20260506013041 | 62 | 0 | 1.0 | 3.0 | 0.00 | 0.01 | 0.01 | 73 | 1007.4 |
| 20260506012529 | 62 | 209 | 0.0 | 4.0 | 0.00 | 0.01 | 0.01 | 73 | 1007.4 |
| 20260506012030 | 62 | 204 | 1.0 | 4.0 | 0.00 | 0.01 | 0.01 | 73 | 1007.4 |
| 20260506011534 | 62 | 138 | 1.0 | 4.0 | 0.00 | 0.01 | 0.01 | 73 | 1007.4 |
| 20260506011029 | 62 | 0 | 1.0 | 3.0 | 0.00 | 0.01 | 0.01 | 73 | 1007.4 |
| 20260506010530 | 62 | 196 | 0.0 | 3.0 | 0.00 | 0.01 | 0.01 | 73 | 1007.3 |
| 20260506010038 | 62 | 0 | 0.0 | 4.0 | 0.00 | 0.01 | 0.01 | 74 | 1007.5 |
| 20260506005528 | 62 | 210 | 1.0 | 4.0 | 0.00 | 0.01 | 0.01 | 74 | 1007.3 |
| 20260506005029 | 62 | 180 | 1.0 | 4.0 | 0.00 | 0.01 | 0.01 | 74 | 1007.5 |
| 20260506004600 | 62 | 252 | 1.0 | 6.0 | 0.00 | 0.01 | 0.01 | 75 | 1007.4 |
| 20260506004030 | 62 | 0 | 2.0 | 6.0 | 0.00 | 0.01 | 0.01 | 75 | 1007.4 |
| 20260506003530 | 62 | 265 | 1.0 | 5.0 | 0.00 | 0.01 | 0.01 | 75 | 1007.3 |
| 20260506003051 | 62 | 255 | 2.0 | 6.0 | 0.00 | 0.01 | 0.01 | 76 | 1007.3 |
| 20260506002529 | 62 | 0 | 2.0 | 7.0 | 0.00 | 0.01 | 0.01 | 76 | 1007.3 |
| 20260506002030 | 62 | 248 | 2.0 | 7.0 | 0.00 | 0.01 | 0.01 | 76 | 1007.1 |
| 20260506001541 | 62 | 277 | 2.0 | 6.0 | 0.00 | 0.01 | 0.01 | 76 | 1007.2 |
| 20260506001030 | 62 | 265 | 1.0 | 4.0 | 0.00 | 0.01 | 0.01 | 77 | 1007.0 |
| 20260506000530 | 62 | 238 | 2.0 | 7.0 | 0.00 | 0.01 | 0.01 | 76 | 1007.1 |
| 20260506000040 | 62 | 266 | 2.0 | 7.0 | 0.00 | 0.01 | 0.01 | 76 | 1007.0 |
| 20260505235530 | 62 | 277 | 2.0 | 6.0 | 0.00 | 0.01 | 0.01 | 77 | 1007.0 |
| 20260505235030 | 62 | 242 | 1.0 | 8.0 | 0.00 | 0.01 | 0.01 | 76 | 1006.9 |
| 20260505234558 | 62 | 269 | 2.0 | 8.0 | 0.00 | 0.01 | 0.01 | 77 | 1006.8 |
| 20260505234032 | 62 | 293 | 3.0 | 8.0 | 0.00 | 0.01 | 0.01 | 77 | 1006.8 |
| 20260505233532 | 62 | 262 | 2.0 | 7.0 | 0.00 | 0.01 | 0.01 | 77 | 1006.8 |
| 20260505233041 | 62 | 264 | 3.0 | 7.0 | 0.00 | 0.01 | 0.01 | 78 | 1006.6 |
| 20260505232530 | 61 | 265 | 3.0 | 7.0 | 0.00 | 0.01 | 0.01 | 78 | 1006.6 |
| 20260505232032 | 61 | 271 | 4.0 | 8.0 | 0.00 | 0.01 | 0.01 | 78 | 1006.5 |
| 20260505231541 | 61 | 271 | 2.0 | 8.0 | 0.00 | 0.01 | 0.01 | 79 | 1006.4 |